This is the latest recevied weather packets stored in our database for station/object EA5CEE. If no packets are shown the sender has not sent any weather packets the latest 1 day(s).
| Time | Temp. | Humidity | Pressure | Rain* | Wind** | Luminosity | Snow |
|---|---|---|---|---|---|---|---|
| 1778021110 | 17.22° C | 88% | 1009.7 hPa | 0 mm | 0 m/s | - | - |
| 1778020216 | 17.22° C | 88% | 1009.9 hPa | 0 mm | 0 m/s | - | - |
| 1778019306 | 17.22° C | 88% | 1010 hPa | 0 mm | 0 m/s | - | - |
| 1778018405 | 17.22° C | 88% | 1010.1 hPa | 0 mm | 0.45 m/s, 337° | - | - |
| 1778017505 | 17.22° C | 88% | 1010 hPa | 0 mm | 0 m/s | - | - |
| 1778016604 | 17.22° C | 88% | 1010.2 hPa | 0 mm | 0 m/s | - | - |
| 1778015704 | 17.22° C | 89% | 1010.3 hPa | 0 mm | 0 m/s | - | - |
| 1778014863 | 17.22° C | 88% | 1010.2 hPa | 0 mm | 0 m/s | - | - |
| 1778013901 | 17.78° C | 88% | 1010.1 hPa | 0 mm | 0.89 m/s, 194° | - | - |
| 1778013002 | 17.22° C | 88% | 1010.1 hPa | 0 mm | 0.45 m/s, 176° | - | - |
| 1778012100 | 17.22° C | 87% | 1010 hPa | 0 mm | 0.89 m/s, 195° | - | - |
| 1778011260 | 17.78° C | 87% | 1009.9 hPa | 0 mm | 0.45 m/s, 208° | - | - |
| 1778010360 | 17.78° C | 87% | 1009.8 hPa | 0 mm | 0.89 m/s, 198° | - | - |
| 1778009459 | 17.78° C | 87% | 1009.5 hPa | 0 mm | 2.24 m/s, 194° | - | - |
| 1778008559 | 17.78° C | 87% | 1009.3 hPa | 0 mm | 2.68 m/s, 180° | - | - |
| 1778007657 | 17.78° C | 87% | 1009.1 hPa | 0 mm | 3.58 m/s, 191° | - | - |
| 1778006756 | 18.33° C | 86% | 1008.9 hPa | 0 mm | 4.92 m/s, 205° | - | - |
| 1778005857 | 18.89° C | 83% | 1008.7 hPa | 0 mm | 4.47 m/s, 222° | - | - |
| 1778004955 | 18.89° C | 82% | 1008.6 hPa | 0 mm | 4.47 m/s, 201° | - | - |
| 1778004058 | 19.44° C | 81% | 1008.6 hPa | 0 mm | 4.02 m/s, 207° | - | - |
| 1778003154 | 20° C | 79% | 1008.6 hPa | 0 mm | 3.13 m/s, 132° | - | - |
| 1778002252 | 20° C | 72% | 1008.5 hPa | 0 mm | 4.02 m/s, 198° | - | - |
| 1778001356 | 20° C | 76% | 1008.4 hPa | 0 mm | 4.47 m/s, 207° | - | - |
| 1778000451 | 20° C | 77% | 1008.5 hPa | 0 mm | 4.92 m/s, 191° | - | - |
| 1777999550 | 20° C | 77% | 1008.6 hPa | 0 mm | 5.81 m/s, 149° | - | - |
* Rain latest hour (hover to see other rain measurements)
** Current wind speed in m/s (hover to see current wind gust speed)